Stations météo

réclame
Mon MeteoGroup
Boscombe Down, Grande-Bretagne (3746): Température de l'air & dewpoint: 14.09.2018 17:00:00 - 20.09.2018 17:00:00 (BST)Boscombe Down, Grande-Bretagne (3746): Vitesse du vent & gusts: 14.09.2018 17:00:00 - 20.09.2018 17:00:00 (BST)Boscombe Down, Grande-Bretagne (3746): Direction du vent: 14.09.2018 17:00:00 - 20.09.2018 17:00:00 (BST)Boscombe Down, Grande-Bretagne (3746): reduced air pressure: 14.09.2018 17:00:00 - 20.09.2018 17:00:00 (BST)Boscombe Down, Grande-Bretagne (3746): visibility: 14.09.2018 17:00:00 - 20.09.2018 17:00:00 (BST)Boscombe Down, Grande-Bretagne (3746): Quantités de précipitations: 14.09.2018 17:00:00 - 20.09.2018 17:00:00 (BST)
Date & Time tt [°C] td [°C] ff [km/h] ff [knt] fx [km/h] fx [knt] dd ppp [hPa] vv [km] rr [mm]
20.09.2018 17:00:00 18,4 15,0 37 20 61 33 SSW 1007,2 10 0,0
20.09.2018 16:00:00 18,6 14,8 41 22 59 32 SSW 1008,2 22 0,0
20.09.2018 15:00:00 18,7 14,9 41 22 67 36 SSW 1008,9 10 0,0
20.09.2018 14:00:00 18,9 15,4 42 23 63 34 SSW 1009,6 10 0,0
20.09.2018 13:00:00 17,4 15,0 39 21 57 31 SSW 1010,0 10 0,0
20.09.2018 12:00:00 17,4 15,1 35 19 50 27 SSW 1010,7 10 0,0
20.09.2018 11:00:00 17,2 15,6 26 14 - - SSW 1011,3 10 0,6
20.09.2018 10:00:00 16,4 15,7 28 15 - - SSW 1011,8 5 1,6
20.09.2018 09:00:00 16,6 15,4 28 15 46 25 SSW 1011,8 9 0,0
20.09.2018 08:00:00 16,3 15,0 28 15 46 25 SSW 1011,6 10 0,0
20.09.2018 07:00:00 16,4 14,8 31 17 46 25 SSW 1011,8 10 0,0
20.09.2018 06:00:00 16,2 14,9 28 15 - - SSW 1011,9 14 0,0
20.09.2018 05:00:00 16,1 15,2 24 13 48 26 SSW 1012,0 12 0,2
20.09.2018 04:00:00 16,3 15,2 28 15 - - SSW 1012,3 9 0,0
20.09.2018 03:00:00 16,3 15,5 26 14 - - SSW 1012,6 9 0,0
20.09.2018 02:00:00 16,0 15,6 24 13 - - SSW 1012,9 5 0,4
20.09.2018 01:00:00 15,5 15,0 21 11 - - SSW 1013,4 6 0,0
20.09.2018 00:00:00 14,9 14,2 13 7 - - SSW 1014,3 35 0,0
19.09.2018 23:00:00 14,8 13,9 13 7 - - SSW 1014,6 12 0,2
19.09.2018 22:00:00 14,5 13,8 21 11 - - WSW 1014,8 5 0,0
19.09.2018 21:00:00 14,6 13,8 18 10 - - W 1014,7 8 0,2
19.09.2018 20:00:00 16,0 13,6 28 15 46 25 WSW 1014,2 9 0,0
19.09.2018 19:00:00 18,0 14,5 29 16 50 27 SW 1013,4 10 0,0
19.09.2018 18:00:00 18,5 14,5 35 19 54 29 SW 1012,8 10 0,0
19.09.2018 17:00:00 19,0 14,5 41 22 63 34 SW 1012,1 10 0,0
19.09.2018 16:00:00 19,3 14,4 42 23 61 33 SW 1012,0 10 0,0
19.09.2018 15:00:00 20,5 13,9 44 24 72 39 SW 1011,6 10 0,0
19.09.2018 14:00:00 19,8 13,0 52 28 72 39 SW 1011,5 10 0,0
19.09.2018 13:00:00 20,1 13,7 48 26 70 38 SW 1011,3 10 0,0
19.09.2018 12:00:00 19,3 13,9 44 24 63 34 SW 1011,3 10 0,0
19.09.2018 11:00:00 18,8 14,3 37 20 61 33 SW 1011,5 10 0,0
19.09.2018 10:00:00 18,1 15,1 35 19 55 30 SSW 1011,3 10 0,0
19.09.2018 09:00:00 17,1 15,3 31 17 - - SSW 1011,2 10 0,0
19.09.2018 08:00:00 16,7 15,2 29 16 - - SSW 1011,3 10 0,0
19.09.2018 07:00:00 16,2 14,9 24 13 - - SSW 1011,4 8 0,0
19.09.2018 06:00:00 15,7 14,5 28 15 - - SSW 1011,4 12 0,0
19.09.2018 05:00:00 16,0 15,0 24 13 - - SSW 1011,4 11 0,0
19.09.2018 04:00:00 16,3 15,4 18 10 - - SSW 1011,7 11 0,2
19.09.2018 03:00:00 16,1 15,5 22 12 - - SSW 1011,7 14 0,2
19.09.2018 02:00:00 16,6 15,2 26 14 - - SSW 1011,7 10 0,0
19.09.2018 01:00:00 17,0 14,6 26 14 - - SSW 1012,1 21 0,0
19.09.2018 00:00:00 16,6 14,3 28 15 - - SSW 1012,0 18 0,0
18.09.2018 23:00:00 16,7 14,3 29 16 - - SSW 1011,9 21 0,0
18.09.2018 22:00:00 16,9 14,2 24 13 - - SSW 1012,2 25 0,0
18.09.2018 21:00:00 16,9 14,4 22 12 - - SSW 1012,1 18 0,0
18.09.2018 20:00:00 17,0 14,4 26 14 - - SSW 1012,0 20 0,0
18.09.2018 19:00:00 17,5 14,6 28 15 - - SSW 1011,6 10 0,0
18.09.2018 18:00:00 18,1 14,4 18 10 - - SSW 1011,3 10 0,0
18.09.2018 17:00:00 18,4 14,7 28 15 52 28 SSW 1011,5 10 0,0
18.09.2018 16:00:00 18,5 14,5 34 18 50 27 SSW 1011,2 10 0,0
18.09.2018 15:00:00 18,6 15,4 31 17 46 25 SSW 1011,0 10 0,0
18.09.2018 14:00:00 18,4 13,8 28 15 46 25 SSW 1010,7 10 0,0
18.09.2018 13:00:00 20,0 13,4 29 16 - - SW 1010,1 10 0,0
18.09.2018 12:00:00 18,7 12,3 34 18 50 27 SW 1009,6 10 0,0
18.09.2018 11:00:00 17,7 12,2 35 19 52 28 SW 1009,1 10 0,0
18.09.2018 10:00:00 17,0 12,9 34 18 55 30 WSW 1008,1 10 0,0
18.09.2018 09:00:00 16,1 13,3 39 21 63 34 SW 1006,8 10 0,0
18.09.2018 08:00:00 16,4 14,6 31 17 54 29 SSW 1005,4 10 0,0
18.09.2018 07:00:00 16,2 14,8 37 20 55 30 SW 1005,0 10 0,0
18.09.2018 06:00:00 15,9 15,0 42 23 63 34 SSW 1004,4 8 0,0
18.09.2018 05:00:00 16,4 15,3 39 21 57 31 SSW 1004,2 12 0,0
18.09.2018 04:00:00 17,2 15,8 42 23 70 38 SSW 1004,5 5 0,0
18.09.2018 03:00:00 18,3 15,3 35 19 54 29 S 1004,9 35 0,0
18.09.2018 02:00:00 17,5 15,1 28 15 - - S 1005,4 30 0,0
18.09.2018 01:00:00 16,4 14,2 24 13 - - S 1006,2 45 0,0
18.09.2018 00:00:00 16,0 12,2 16 9 - - S 1006,7 50 0,0
17.09.2018 23:00:00 16,0 11,5 16 9 - - SSE 1007,0 10 0,0
17.09.2018 22:00:00 15,8 12,4 9 5 - - SSE 1007,7 10 0,0
17.09.2018 21:00:00 15,3 11,3 13 7 - - SE 1008,6 45 0,0
17.09.2018 20:00:00 15,5 11,1 13 7 - - SE 1009,3 50 0,0
17.09.2018 19:00:00 18,8 10,9 18 10 - - SSE 1009,6 50 0,0
17.09.2018 18:00:00 20,1 10,4 24 13 - - S 1010,3 10 0,0
17.09.2018 17:00:00 20,8 9,7 28 15 - - S 1010,8 10 0,0
17.09.2018 16:00:00 22,1 8,3 28 15 - - S 1011,6 10 0,0
17.09.2018 15:00:00 22,3 9,7 26 14 - - S 1012,6 10 0,0
17.09.2018 14:00:00 21,4 13,7 26 14 - - S 1013,5 10 0,0
17.09.2018 13:00:00 20,9 13,9 26 14 - - S 1014,2 10 0,0
17.09.2018 12:00:00 21,1 15,6 26 14 - - S 1014,7 10 0,0
17.09.2018 11:00:00 17,3 16,0 24 13 - - S 1015,8 10 0,0
17.09.2018 10:00:00 17,0 16,0 21 11 - - S 1016,1 10 0,0
17.09.2018 09:00:00 16,6 16,0 16 9 - - S 1016,1 9 0,0
17.09.2018 08:00:00 16,3 16,0 16 9 - - S 1016,2 8 0,0
17.09.2018 07:00:00 16,4 16,0 16 9 - - S 1016,2 3,5 0,0
17.09.2018 06:00:00 16,4 16,1 21 11 - - SSW 1016,3 5 0,0
17.09.2018 05:00:00 16,5 16,1 21 11 - - S 1016,4 2,1 0,0
17.09.2018 04:00:00 16,6 16,1 16 9 - - S 1016,7 6 0,0
17.09.2018 03:00:00 16,5 16,2 16 9 - - SSW 1017,1 5 0,0
17.09.2018 02:00:00 16,4 16,1 18 10 - - S 1017,2 4,4 0,0
17.09.2018 01:00:00 16,5 16,0 21 11 - - S 1017,8 3,1 0,0
17.09.2018 00:00:00 16,6 15,9 16 9 - - S 1018,0 6 0,0
16.09.2018 23:00:00 16,6 15,8 16 9 - - SSW 1018,2 9 0,0
16.09.2018 22:00:00 16,7 15,7 15 8 - - SSW 1018,4 10 0,0
16.09.2018 21:00:00 16,8 15,4 18 10 - - SW 1018,2 18 0,0
16.09.2018 20:00:00 17,3 15,1 21 11 - - SSW 1017,8 35 0,0
16.09.2018 19:00:00 17,6 14,9 22 12 - - SSW 1017,6 50 0,0
16.09.2018 18:00:00 19,1 14,8 26 14 - - SSW 1017,4 50 0,0
16.09.2018 17:00:00 19,9 14,1 28 15 - - SSW 1017,2 27 0,0
16.09.2018 16:00:00 19,6 14,2 26 14 - - SSW 1017,3 28 0,0
16.09.2018 15:00:00 20,3 14,2 28 15 - - SSW 1017,7 10 0,0
16.09.2018 14:00:00 20,2 13,3 26 14 - - SSW 1017,8 10 0,0
16.09.2018 13:00:00 21,0 13,1 31 17 - - SSW 1017,7 40 0,0
16.09.2018 12:00:00 19,4 12,2 26 14 - - SSW 1018,1 10 0,0
16.09.2018 11:00:00 17,2 12,7 26 14 - - SSW 1018,8 10 0,0
16.09.2018 10:00:00 16,8 14,1 22 12 - - SSW 1019,1 10 0,0
16.09.2018 09:00:00 14,3 13,9 9 5 - - SSW 1018,9 10 0,0
16.09.2018 08:00:00 13,6 13,0 13 7 - - S 1018,6 10 0,0
16.09.2018 07:00:00 12,4 12,0 9 5 - - SE 1018,8 13 0,0
16.09.2018 06:00:00 12,7 12,2 4 2 - - W 1019,4 10 0,0
16.09.2018 05:00:00 12,0 11,5 9 5 - - S 1019,4 22 0,0
16.09.2018 04:00:00 11,9 11,2 9 5 - - S 1020,0 9 0,0
16.09.2018 03:00:00 12,8 11,6 13 7 - - SSE 1020,6 19 0,0
16.09.2018 02:00:00 12,3 11,4 11 6 - - S 1021,5 10 0,0
16.09.2018 01:00:00 12,3 11,2 13 7 - - S 1022,3 17 0,0
16.09.2018 00:00:00 12,7 11,4 9 5 - - S 1022,5 21 0,0
15.09.2018 23:00:00 12,8 11,5 8 4 - - S 1022,9 22 0,0
15.09.2018 22:00:00 12,9 10,9 9 5 - - SSE 1023,1 40 0,0
15.09.2018 21:00:00 13,2 10,3 5 3 - - S 1023,6 40 0,0
15.09.2018 20:00:00 14,1 10,3 11 6 - - SSW 1023,3 40 0,0
15.09.2018 19:00:00 15,6 9,9 15 8 - - SSW 1023,0 45 0,0
15.09.2018 18:00:00 17,4 10,3 21 11 - - SSW 1022,8 35 0,0
15.09.2018 17:00:00 18,6 9,8 21 11 - - SW 1022,8 50 0,0
15.09.2018 16:00:00 19,3 8,2 15 8 - - SW 1023,3 50 0,0
15.09.2018 15:00:00 19,3 8,5 11 6 - - SSW 1023,7 30 0,0
15.09.2018 14:00:00 18,5 8,9 16 9 - - W 1024,1 45 0,0
15.09.2018 13:00:00 19,0 9,6 13 7 - - SW 1024,3 40 0,0
15.09.2018 12:00:00 17,8 10,5 16 9 - - W 1024,7 30 0,0
15.09.2018 11:00:00 16,3 10,8 15 8 - - W 1024,8 21 0,0
15.09.2018 10:00:00 15,3 11,5 13 7 - - WSW 1024,7 10 0,0
15.09.2018 09:00:00 12,8 11,7 8 4 - - SW 1024,8 18 0,0
15.09.2018 08:00:00 10,2 9,9 5 3 - - S 1024,4 10 0,0
15.09.2018 07:00:00 9,2 8,7 13 7 - - SSW 1023,9 12 0,0
15.09.2018 06:00:00 10,4 9,9 11 6 - - SSW 1023,5 14 0,0
15.09.2018 05:00:00 11,0 10,4 9 5 - - SSW 1023,3 10 0,0
15.09.2018 04:00:00 10,9 10,1 8 4 - - WSW 1023,0 9 0,0
15.09.2018 03:00:00 11,2 10,1 13 7 - - SW 1022,9 24 0,0
15.09.2018 02:00:00 12,3 10,5 8 4 - - S 1023,2 27 0,0
15.09.2018 01:00:00 12,9 10,7 13 7 - - WSW 1023,1 30 0,0
15.09.2018 00:00:00 13,1 10,5 11 6 - - WSW 1022,9 40 0,0
14.09.2018 23:00:00 14,0 10,7 16 9 - - WSW 1022,5 50 0,0
14.09.2018 22:00:00 13,9 10,6 15 8 - - WSW 1022,2 50 0,0
14.09.2018 21:00:00 14,1 9,7 13 7 - - W 1022,0 45 0,0
14.09.2018 20:00:00 14,5 9,8 13 7 - - WSW 1021,2 10 0,0
14.09.2018 19:00:00 15,9 9,9 18 10 - - W 1020,8 50 0,0
14.09.2018 18:00:00 16,9 9,7 22 12 - - W 1020,6 50 0,0
14.09.2018 17:00:00 17,3 10,8 22 12 - - W 1020,6 30 0,0

tt = Température de l'air
td = dewpoint
ff = Vitesse du vent
fx = gusts
dd = Direction du vent
ppp = reduced air pressure
vv = visibility
rr = Quantités de précipitations

stations d'obs. à proximité